Time,TemperatureF,DewpointF,PressureIn,WindDirection,WindDirectionDegrees,WindSpeedMPH,WindSpeedGustMPH,Humidity,HourlyPrecipIn,Conditions,Clouds,dailyrainin,SoftwareType,DateUTC
2015-07-03 00:04:00,71.0,70.0,29.80,SSW,197,0.0,-999.0,97,-99.99,,,-99.99,,2015-07-03 04:04:00,
2015-07-03 00:13:00,71.0,70.0,29.80,SE,134,0.0,-999.0,97,-99.99,,,-99.99,,2015-07-03 04:13:00,
2015-07-03 00:23:00,71.0,70.0,29.81,ESE,109,0.0,-999.0,98,-99.99,,,-99.99,,2015-07-03 04:23:00,
2015-07-03 00:33:00,71.0,70.0,29.81,ESE,109,0.0,-999.0,98,-99.99,,,-99.99,,2015-07-03 04:33:00,
2015-07-03 00:43:00,71.0,70.0,29.81,ESE,109,0.0,-999.0,98,-99.99,,,-99.99,,2015-07-03 04:43:00,
2015-07-03 01:03:00,71.0,70.0,29.81,ESE,109,0.0,-999.0,98,-99.99,,,-99.99,,2015-07-03 05:03:00,
2015-07-03 01:13:00,71.0,70.0,29.81,ESE,109,0.0,-999.0,98,-99.99,,,-99.99,,2015-07-03 05:13:00,
2015-07-03 01:23:00,71.0,70.0,29.81,ESE,109,0.0,-999.0,98,-99.99,,,-99.99,,2015-07-03 05:23:00,
2015-07-03 01:33:00,71.0,70.0,29.81,ESE,109,0.0,-999.0,98,-99.99,,,-99.99,,2015-07-03 05:33:00,
2015-07-03 01:43:00,71.0,70.0,29.81,ESE,109,0.0,-999.0,98,-99.99,,,-99.99,,2015-07-03 05:43:00,
2015-07-03 02:03:00,71.0,70.0,29.81,ESE,109,0.0,-999.0,98,-99.99,,,-99.99,,2015-07-03 06:03:00,
2015-07-03 02:13:00,71.0,70.0,29.81,ESE,109,0.0,-999.0,98,-99.99,,,-99.99,,2015-07-03 06:13:00,
2015-07-03 02:23:00,70.0,69.0,29.79,ESE,109,0.0,-999.0,98,-99.99,,,-99.99,,2015-07-03 06:23:00,
2015-07-03 02:34:00,70.0,69.0,29.79,ESE,109,0.0,-999.0,98,-99.99,,,-99.99,,2015-07-03 06:34:00,
2015-07-03 02:44:00,70.0,69.0,29.80,ESE,109,0.0,-999.0,98,-99.99,,,-99.99,,2015-07-03 06:44:00,
2015-07-03 03:03:00,70.0,70.0,29.80,ESE,109,0.0,-999.0,99,-99.99,,,-99.99,,2015-07-03 07:03:00,
2015-07-03 03:13:00,70.0,70.0,29.79,ESE,109,0.0,-999.0,99,-99.99,,,-99.99,,2015-07-03 07:13:00,
2015-07-03 03:23:00,70.0,70.0,29.79,ESE,109,0.0,-999.0,99,-99.99,,,-99.99,,2015-07-03 07:23:00,
2015-07-03 03:33:00,70.0,70.0,29.79,ESE,109,0.0,-999.0,99,-99.99,,,-99.99,,2015-07-03 07:33:00,
2015-07-03 03:43:00,70.0,70.0,29.80,ESE,109,0.0,-999.0,99,-99.99,,,-99.99,,2015-07-03 07:43:00,
2015-07-03 04:03:00,70.0,70.0,29.79,South,185,0.0,-999.0,99,-99.99,,,-99.99,,2015-07-03 08:03:00,
2015-07-03 04:13:00,70.0,70.0,29.78,South,185,0.0,-999.0,99,-99.99,,,-99.99,,2015-07-03 08:13:00,
2015-07-03 04:23:00,69.0,69.0,29.78,South,185,0.0,-999.0,99,-99.99,,,-99.99,,2015-07-03 08:23:00,
2015-07-03 04:33:00,69.0,69.0,29.78,South,185,0.0,-999.0,99,-99.99,,,-99.99,,2015-07-03 08:33:00,
2015-07-03 04:43:00,69.0,69.0,29.78,South,185,0.0,-999.0,99,-99.99,,,-99.99,,2015-07-03 08:43:00,
2015-07-03 05:03:00,70.0,70.0,29.78,South,185,0.0,-999.0,99,-99.99,,,-99.99,,2015-07-03 09:03:00,
2015-07-03 05:13:00,70.0,70.0,29.78,South,185,0.0,-999.0,99,-99.99,,,-99.99,,2015-07-03 09:13:00,
2015-07-03 05:23:00,70.0,70.0,29.79,South,185,0.0,-999.0,99,-99.99,,,-99.99,,2015-07-03 09:23:00,
2015-07-03 05:34:00,70.0,70.0,29.79,South,185,0.0,-999.0,99,-99.99,,,-99.99,,2015-07-03 09:34:00,
2015-07-03 05:43:00,70.0,70.0,29.78,South,185,0.0,-999.0,99,-99.99,,,-99.99,,2015-07-03 09:43:00,
2015-07-03 06:03:00,70.0,70.0,29.78,South,185,0.0,-999.0,99,-99.99,,,-99.99,,2015-07-03 10:03:00,
2015-07-03 06:13:00,70.0,70.0,29.78,South,185,0.0,-999.0,99,-99.99,,,-99.99,,2015-07-03 10:13:00,
2015-07-03 06:23:00,70.0,70.0,29.78,South,185,0.0,-999.0,99,-99.99,,,-99.99,,2015-07-03 10:23:00,
2015-07-03 06:33:00,70.0,70.0,29.78,South,185,0.0,-999.0,99,-99.99,,,-99.99,,2015-07-03 10:33:00,
2015-07-03 06:43:00,70.0,70.0,29.79,South,185,0.0,-999.0,99,-99.99,,,-99.99,,2015-07-03 10:43:00,
2015-07-03 06:53:00,70.0,70.0,29.79,South,185,0.0,-999.0,99,-99.99,,,-99.99,,2015-07-03 10:53:00,
2015-07-03 07:03:00,70.0,70.0,29.79,South,185,0.0,-999.0,99,-99.99,,,-99.99,,2015-07-03 11:03:00,
2015-07-03 07:13:00,70.0,70.0,29.80,South,185,0.0,-999.0,99,-99.99,,,-99.99,,2015-07-03 11:13:00,
2015-07-03 07:23:00,70.0,70.0,29.79,SSW,198,1.0,-999.0,99,-99.99,,,-99.99,,2015-07-03 11:23:00,
2015-07-03 07:33:00,70.0,70.0,29.79,SSW,198,1.0,-999.0,99,-99.99,,,-99.99,,2015-07-03 11:33:00,
2015-07-03 07:44:00,70.0,70.0,29.80,SSW,198,0.0,-999.0,99,-99.99,,,-99.99,,2015-07-03 11:44:00,
2015-07-03 08:03:00,70.0,70.0,29.80,SSW,198,0.0,-999.0,99,-99.99,,,-99.99,,2015-07-03 12:03:00,
2015-07-03 08:13:00,70.0,70.0,29.79,SSW,198,0.0,-999.0,99,-99.99,,,-99.99,,2015-07-03 12:13:00,
2015-07-03 08:23:00,70.0,70.0,29.79,SSW,199,0.0,-999.0,99,-99.99,,,-99.99,,2015-07-03 12:23:00,
2015-07-03 08:34:00,70.0,70.0,29.79,SSW,199,0.0,-999.0,99,-99.99,,,-99.99,,2015-07-03 12:34:00,
2015-07-03 08:44:00,70.0,70.0,29.80,SSW,199,0.0,-999.0,99,-99.99,,,-99.99,,2015-07-03 12:44:00,
2015-07-03 09:03:00,71.0,71.0,29.80,SSW,194,0.0,-999.0,99,-99.99,,,-99.99,,2015-07-03 13:03:00,
2015-07-03 09:13:00,72.0,72.0,29.80,SSE,150,0.0,-999.0,99,-99.99,,,-99.99,,2015-07-03 13:13:00,
2015-07-03 09:23:00,72.0,72.0,29.80,SSE,167,2.0,-999.0,99,-99.99,,,-99.99,,2015-07-03 13:23:00,
2015-07-03 09:33:00,72.0,72.0,29.80,SSE,167,2.0,-999.0,99,-99.99,,,-99.99,,2015-07-03 13:33:00,
2015-07-03 09:43:00,72.0,71.0,29.80,SSW,193,1.0,-999.0,98,-99.99,,,-99.99,,2015-07-03 13:43:00,
2015-07-03 09:53:00,73.0,72.0,29.78,SW,215,2.0,-999.0,96,-99.99,,,-99.99,,2015-07-03 13:53:00,
2015-07-03 10:03:00,73.0,72.0,29.78,SW,215,2.0,-999.0,96,-99.99,,,-99.99,,2015-07-03 14:03:00,
2015-07-03 10:13:00,73.0,71.0,29.78,SE,137,0.0,-999.0,94,-99.99,,,-99.99,,2015-07-03 14:13:00,
2015-07-03 10:23:00,73.0,71.0,29.79,SW,219,2.0,-999.0,92,-99.99,,,-99.99,,2015-07-03 14:23:00,
2015-07-03 10:33:00,73.0,71.0,29.79,SW,219,2.0,-999.0,92,-99.99,,,-99.99,,2015-07-03 14:33:00,
2015-07-03 10:44:00,73.0,70.0,29.79,SW,215,2.0,-999.0,90,-99.99,,,-99.99,,2015-07-03 14:44:00,
2015-07-03 11:03:00,74.0,71.0,29.80,SSW,207,3.0,-999.0,89,-99.99,,,-99.99,,2015-07-03 15:03:00,
2015-07-03 11:13:00,74.0,70.0,29.80,South,186,3.0,-999.0,87,-99.99,,,-99.99,,2015-07-03 15:13:00,
2015-07-03 11:23:00,74.0,70.0,29.80,West,273,3.0,-999.0,87,-99.99,,,-99.99,,2015-07-03 15:23:00,
2015-07-03 11:33:00,74.0,70.0,29.80,West,273,3.0,-999.0,87,-99.99,,,-99.99,,2015-07-03 15:33:00,
2015-07-03 11:44:00,74.0,70.0,29.81,SSW,197,3.0,-999.0,87,-99.99,,,-99.99,,2015-07-03 15:44:00,
2015-07-03 11:53:00,74.0,69.0,29.80,SSW,202,3.0,-999.0,85,-99.99,,,-99.99,,2015-07-03 15:53:00,
2015-07-03 12:04:00,74.0,69.0,29.80,SSW,202,3.0,-999.0,85,-99.99,,,-99.99,,2015-07-03 16:04:00,
2015-07-03 12:13:00,74.0,69.0,29.81,South,182,3.0,-999.0,85,-99.99,,,-99.99,,2015-07-03 16:13:00,
2015-07-03 12:23:00,74.0,70.0,29.81,SW,225,3.0,-999.0,87,-99.99,,,-99.99,,2015-07-03 16:23:00,
2015-07-03 12:33:00,74.0,70.0,29.81,SW,225,3.0,-999.0,87,-99.99,,,-99.99,,2015-07-03 16:33:00,
2015-07-03 12:43:00,74.0,71.0,29.81,SSW,208,3.0,-999.0,89,-99.99,,,-99.99,,2015-07-03 16:43:00,
2015-07-03 12:53:00,73.0,70.0,29.82,South,190,2.0,-999.0,91,-99.99,,,-99.99,,2015-07-03 16:53:00,
2015-07-03 13:04:00,73.0,70.0,29.82,South,190,2.0,-999.0,91,-99.99,,,-99.99,,2015-07-03 17:04:00,
2015-07-03 13:13:00,72.0,70.0,29.81,SSW,205,5.0,-999.0,92,-99.99,,,-99.99,,2015-07-03 17:13:00,
2015-07-03 13:23:00,71.0,68.0,29.81,SW,235,5.0,-999.0,91,-99.99,,,-99.99,,2015-07-03 17:23:00,
2015-07-03 13:34:00,71.0,68.0,29.81,SW,235,5.0,-999.0,91,-99.99,,,-99.99,,2015-07-03 17:34:00,
2015-07-03 13:44:00,71.0,69.0,29.81,South,190,4.0,-999.0,92,-99.99,,,-99.99,,2015-07-03 17:44:00,
2015-07-03 14:04:00,73.0,70.0,29.81,West,261,4.0,-999.0,89,-99.99,,,-99.99,,2015-07-03 18:04:00,
2015-07-03 14:13:00,75.0,69.0,29.80,SSW,198,5.0,-999.0,81,-99.99,,,-99.99,,2015-07-03 18:13:00,
2015-07-03 14:24:00,77.0,69.0,29.79,South,190,3.0,-999.0,77,-99.99,,,-99.99,,2015-07-03 18:24:00,
2015-07-03 14:34:00,77.0,69.0,29.79,South,190,3.0,-999.0,77,-99.99,,,-99.99,,2015-07-03 18:34:00,
2015-07-03 14:44:00,78.0,70.0,29.79,SSW,202,3.0,-999.0,76,-99.99,,,-99.99,,2015-07-03 18:44:00,
2015-07-03 14:53:00,78.0,69.0,29.79,SW,216,4.0,-999.0,75,-99.99,,,-99.99,,2015-07-03 18:53:00,
2015-07-03 15:04:00,78.0,69.0,29.79,SW,216,4.0,-999.0,75,-99.99,,,-99.99,,2015-07-03 19:04:00,
2015-07-03 15:13:00,79.0,70.0,29.79,SSW,209,5.0,-999.0,75,-99.99,,,-99.99,,2015-07-03 19:13:00,
2015-07-03 15:24:00,78.0,69.0,29.78,SW,225,7.0,-999.0,75,-99.99,,,-99.99,,2015-07-03 19:24:00,
2015-07-03 15:34:00,78.0,69.0,29.78,SW,225,7.0,-999.0,75,-99.99,,,-99.99,,2015-07-03 19:34:00,
2015-07-03 15:44:00,79.0,70.0,29.78,SW,219,4.0,-999.0,75,-99.99,,,-99.99,,2015-07-03 19:44:00,
2015-07-03 15:53:00,79.0,68.0,29.78,WNW,295,5.0,-999.0,69,-99.99,,,-99.99,,2015-07-03 19:53:00,
2015-07-03 16:03:00,79.0,68.0,29.78,WNW,295,5.0,-999.0,69,-99.99,,,-99.99,,2015-07-03 20:03:00,
2015-07-03 16:13:00,80.0,68.0,29.77,South,175,5.0,-999.0,67,-99.99,,,-99.99,,2015-07-03 20:13:00,
2015-07-03 16:23:00,80.0,69.0,29.77,WSW,242,3.0,-999.0,69,-99.99,,,-99.99,,2015-07-03 20:23:00,
2015-07-03 16:34:00,80.0,69.0,29.77,WSW,242,3.0,-999.0,69,-99.99,,,-99.99,,2015-07-03 20:34:00,
2015-07-03 16:43:00,79.0,69.0,29.76,SSW,206,4.0,-999.0,71,-99.99,,,-99.99,,2015-07-03 20:43:00,
2015-07-03 16:53:00,78.0,68.0,29.77,WNW,303,3.0,-999.0,71,-99.99,,,-99.99,,2015-07-03 20:53:00,
2015-07-03 17:03:00,78.0,68.0,29.77,WNW,303,3.0,-999.0,71,-99.99,,,-99.99,,2015-07-03 21:03:00,